Regional Weather Roundup
Issued by NWS

Home | Current Version | Previous Version | Graphics & Text | Print | Product List | Glossary On
Versions: 1 2 3 4 5 6 7 8 9 10 11 12 13 14 15 16 17 18 19 20 21 22 23 24 25 26 27 28 29 30 31 32 33 34 35 36 37 38 39 40 41 42 43 44 45 46 47 48 49 50
000
ASUS43 KDMX 250208
RWRIA

WEATHER ROUNDUP FOR IOWA
NATIONAL WEATHER SERVICE DES MOINES IA
900 PM CDT SUN JUL 24 2016

NOTE: "FAIR" INDICATES FEW OR NO CLOUDS BELOW 12,000 FEET WITH NO
SIGNIFICANT WEATHER AND/OR OBSTRUCTIONS TO VISIBILITY.

* - THESE STATIONS ARE NOT NWS STATIONS...THUS NOT UNDER NWS
QUALITY CONTROL.  THEY ALSO DO NOT REPORT WEATHER SUCH
AS PRECIPITATION OR FOG.

IAZ001>003-012>014-020>022-031>034-043>046-250300-
   NORTHWEST IOWA

CITY           SKY/WX    TMP DP  RH WIND       PRES   REMARKS
CARROLL *      PTCLDY    73  68  83 N5        30.02S
CHEROKEE *     CLOUDY    71  66  83 N3        30.04R
LE MARS *      CLEAR     73  66  78 CALM      30.06R
SHELDON *      CLOUDY    70  66  88 W5        30.04R
SIOUX CITY     CLOUDY    75  63  66 NW3       30.04R
SPENCER        PTCLDY    68  65  90 W7        30.04R
STORM LAKE *   CLOUDY    70  66  88 NW6       30.05R
$$

IAZ055>058-069>071-079>083-090>094-250300-
   SOUTHWEST IOWA

CITY           SKY/WX    TMP DP  RH WIND       PRES   REMARKS
ATLANTIC *     CLOUDY    73  70  88 N5        30.01R
CLARINDA *       N/A     77  70  78 MISG      29.99F
COUNCIL BLFS * CLEAR     73  70  88 N7        30.01S
CRESTON *      CLOUDY    77  66  69 N5        30.02R
HARLAN  *      PTCLDY    72  70  94 NW6       30.05S
LAMONI         PTCLDY    75  69  81 NE3       29.98F
RED OAK *      CLOUDY    75  72  88 N5        30.00F
SHENANDOAH *   CLOUDY    77  70  78 N10       29.97S
$$

IAZ047>049-059>061-072>074-084-250300-
   CENTRAL IOWA

CITY           SKY/WX    TMP DP  RH WIND       PRES   REMARKS
AMES           MOCLDY    74  69  85 NW7       30.00R
ANKENY *         N/A    N/A N/A N/A MISG        N/A
BOONE *        CLOUDY    75  64  69 NW8       30.01R
CHARITON *       N/A    N/A N/A N/A MISG        N/A
DES MOINES     CLOUDY    80  66  62 N8        29.98S HX  82
GRINNELL*      CLOUDY    73  67  81 NW5       29.99R
KNOXVILLE *    CLOUDY    75  70  83 SW7       29.97R
MARSHALLTOWN   MOCLDY    72  69  90 NW7       29.97S
NEWTON *       CLOUDY    77  68  73 N8        29.97S
PELLA *        CLOUDY    74  67  77 NW6       29.98S
PERRY *          N/A     74  72  93 CALM      30.01S
$$

IAZ004>006-015-016-023>025-035-036-250300-
   NORTH CENTRAL IOWA

CITY           SKY/WX    TMP DP  RH WIND       PRES   REMARKS
ALGONA *       CLOUDY    73  70  88 W5        30.02S
ESTHERVILLE    PTCLDY    70  66  87 W6        30.01S
FORT DODGE *   CLOUDY    73  66  78 CALM      30.02S
MASON CITY     CLOUDY    70  64  81 NW8       30.01R
FOREST CITY *    N/A     68  63  83 W6        30.00S
IOWA FALLS *     N/A     72  67  83 NW3       30.01S
$$

IAZ007>011-017>019-026>030-037>042-050>054-066-250300-
   NORTHEAST IOWA

CITY           SKY/WX    TMP DP  RH WIND       PRES   REMARKS
CEDAR RAPIDS   CLOUDY    73  69  87 W8        29.95R
CHARLES CITY * CLOUDY    72  68  88 W6        29.99R
CLINTON *      CLEAR     74  71  91 W3        29.92S
DECORAH *      CLEAR     72  66  83 VRB3      29.95R
DUBUQUE        CLOUDY    75  67  76 CALM      29.93F
MONTICELLO *   PTCLDY    73  70  88 CALM      29.92S
OELWEIN *      MOCLDY    73  68  83 W7        29.98R
WATERLOO       PTCLDY    75  66  73 W6        29.96R
$$

IAZ064-065-067-068-078-250300-
   EAST CENTRAL IOWA

CITY           SKY/WX    TMP DP  RH WIND       PRES   REMARKS
DAVENPORT      PTCLDY    75  69  81 NW6       29.93S
IOWA CITY      CLOUDY    77  68  73 W7        29.95R
MT. PLEASANT * CLOUDY    81  72  74 N8        29.94S HX  84
MUSCATINE *    CLOUDY    79  72  78 CALM      29.93R HX  82
QUAD CITIES    MOCLDY    83  67  58 NW9       29.91S HX  85
$$

IAZ062-063-075>077-085>089-095>099-250300-
   SOUTHEAST IOWA

CITY           SKY/WX    TMP DP  RH WIND       PRES   REMARKS
BURLINGTON     CLOUDY    80  76  87 SW14G20   29.96R HX  86
FAIRFIELD *    CLOUDY    77  72  83 N8        29.95R
KEOKUK *       HVY RAIN  75  68  78 N6G16     29.89F
CENTERVILLE *    N/A     75  70  83 CALM      29.99R
OTTUMWA        CLOUDY    76  69  79 N6        29.95S
WASHINGTON *   CLOUDY    77  70  78 NW6       29.96R
$$

ABBREVIATIONS USED IN REMARKS
   TC - TEMPERATURES IN CELSIUS
  WCI - WIND CHILL INDEX
   HX - HEAT INDEX
  VSB - VISIBILITY
$$




USA.gov is the U.S. government's official web portal to all federal, state and local government web resources and services.